| time (UTC) | temp F | wind direction | speed MPH | gust MPH | rain 1hr in | rain 24hr in | rain mn in | humidity % | barometer mb |
| 20260903210230 | 91 | 100 | 0.0 | 0.0 | 0.00 | 0.35 | 0.35 | 61 | 1011.9 |
| 20260903205725 | 90 | 130 | 1.0 | 1.0 | 0.00 | 0.35 | 0.35 | 64 | 1012.2 |
| 20260903205224 | 90 | 93 | 0.0 | 0.0 | 0.00 | 0.35 | 0.35 | 64 | 1012.4 |
| 20260903204720 | 91 | 118 | 0.0 | 1.0 | 0.00 | 0.35 | 0.35 | 61 | 1012.2 |
| 20260903204216 | 91 | 103 | 0.0 | 0.0 | 0.05 | 0.35 | 0.35 | 65 | 1012.4 |
| 20260903203711 | 91 | 127 | 0.0 | 1.0 | 0.00 | 0.34 | 0.34 | 60 | 1012.3 |
| 20260903203206 | 91 | 144 | 0.0 | 0.0 | 0.00 | 0.34 | 0.34 | 60 | 1012.3 |
| 20260903202700 | 90 | 143 | 0.0 | 1.0 | 0.00 | 0.34 | 0.34 | 62 | 1012.5 |
| 20260903202156 | 89 | 100 | 0.0 | 0.0 | 0.00 | 0.34 | 0.34 | 63 | 1012.5 |
| 20260903201655 | 90 | 103 | 0.0 | 0.0 | 0.00 | 0.34 | 0.34 | 63 | 1012.6 |
| 20260903201150 | 90 | 129 | 1.0 | 2.0 | 0.00 | 0.34 | 0.34 | 65 | 1013.1 |
| 20260903200644 | 89 | 102 | 0.0 | 0.0 | 0.00 | 0.34 | 0.34 | 64 | 1013.0 |
| 20260903200140 | 90 | 127 | 0.0 | 0.0 | 0.00 | 0.34 | 0.34 | 62 | 1013.1 |
| 20260903195636 | 89 | 147 | 0.0 | 0.0 | 0.00 | 0.34 | 0.34 | 63 | 1012.9 |
| 20260903195132 | 88 | 119 | 1.0 | 1.0 | 0.00 | 0.34 | 0.34 | 66 | 1013.1 |
| 20260903194627 | 88 | 23 | 2.0 | 2.0 | 0.07 | 0.34 | 0.34 | 67 | 1013.1 |
| 20260903194127 | 89 | 105 | 0.0 | 0.0 | 0.07 | 0.34 | 0.34 | 66 | 1013.3 |
| 20260903193622 | 89 | 97 | 0.0 | 0.0 | 0.00 | 0.33 | 0.33 | 65 | 1013.4 |
| 20260903193118 | 88 | 95 | 0.0 | 1.0 | 0.00 | 0.33 | 0.33 | 67 | 1013.3 |
| 20260903192615 | 88 | 110 | 1.0 | 1.0 | 0.00 | 0.33 | 0.33 | 70 | 1013.4 |
| 20260903192114 | 88 | 107 | 0.0 | 0.0 | 0.00 | 0.33 | 0.33 | 66 | 1013.3 |
| 20260903191611 | 88 | 121 | 1.0 | 1.0 | 0.00 | 0.33 | 0.33 | 68 | 1013.4 |
| 20260903191105 | 88 | 111 | 1.0 | 1.0 | 0.00 | 0.33 | 0.33 | 69 | 1013.4 |
| 20260903190604 | 88 | 121 | 0.0 | 1.0 | 0.00 | 0.33 | 0.33 | 68 | 1013.6 |
| 20260903190059 | 88 | 111 | 0.0 | 1.0 | 0.00 | 0.33 | 0.33 | 67 | 1013.8 |
| 20260903185555 | 88 | 108 | 0.0 | 1.0 | 0.00 | 0.33 | 0.33 | 66 | 1013.7 |
| 20260903185050 | 87 | 127 | 0.0 | 1.0 | 0.00 | 0.33 | 0.33 | 69 | 1013.6 |
| 20260903184546 | 87 | 214 | 1.0 | 1.0 | 0.07 | 0.33 | 0.33 | 68 | 1013.9 |
| 20260903184041 | 87 | 133 | 0.0 | 0.0 | 0.07 | 0.33 | 0.33 | 69 | 1014.0 |
| 20260903183540 | 87 | 86 | 0.0 | 1.0 | 0.00 | 0.32 | 0.32 | 69 | 1014.1 |
| 20260903183035 | 87 | 127 | 0.0 | 0.0 | 0.00 | 0.32 | 0.32 | 71 | 1013.9 |
| 20260903182534 | 87 | 113 | 0.0 | 1.0 | 0.00 | 0.32 | 0.32 | 70 | 1014.4 |
| 20260903182031 | 88 | 142 | 0.0 | 1.0 | 0.00 | 0.32 | 0.32 | 69 | 1014.2 |
| 20260903181529 | 89 | 137 | 0.0 | 1.0 | 0.00 | 0.32 | 0.32 | 65 | 1014.4 |
| 20260903181029 | 88 | 112 | 0.0 | 0.0 | 0.00 | 0.32 | 0.32 | 70 | 1014.4 |
| 20260903180524 | 88 | 111 | 0.0 | 0.0 | 0.00 | 0.32 | 0.32 | 68 | 1014.5 |
| 20260903180024 | 87 | 117 | 0.0 | 0.0 | 0.00 | 0.32 | 0.32 | 71 | 1014.7 |
| 20260903175522 | 87 | 118 | 0.0 | 0.0 | 0.00 | 0.32 | 0.32 | 69 | 1014.6 |
| 20260903175022 | 87 | 162 | 1.0 | 2.0 | 0.05 | 0.32 | 0.32 | 69 | 1014.9 |
| 20260903174517 | 87 | 105 | 2.0 | 3.0 | 0.05 | 0.32 | 0.32 | 71 | 1015.1 |
| 20260903174012 | 86 | 109 | 0.0 | 0.0 | 0.00 | 0.31 | 0.31 | 72 | 1015.2 |
| 20260903173507 | 86 | 124 | 0.0 | 1.0 | 0.00 | 0.31 | 0.31 | 72 | 1015.1 |
| 20260903173003 | 86 | 105 | 0.0 | 0.0 | 0.00 | 0.31 | 0.31 | 74 | 1015.1 |
| 20260903172457 | 87 | 111 | 1.0 | 1.0 | 0.00 | 0.31 | 0.31 | 71 | 1015.2 |
| 20260903171953 | 86 | 115 | 0.0 | 1.0 | 0.00 | 0.31 | 0.31 | 76 | 1015.4 |
| 20260903171448 | 84 | 101 | 0.0 | 0.0 | 0.00 | 0.31 | 0.31 | 75 | 1015.2 |
| 20260903170943 | 84 | 107 | 0.0 | 1.0 | 0.00 | 0.31 | 0.31 | 76 | 1015.0 |
| 20260903170437 | 85 | 155 | 0.0 | 1.0 | 0.07 | 0.31 | 0.31 | 75 | 1015.3 |
| 20260903165936 | 86 | 106 | 0.0 | 0.0 | 0.07 | 0.31 | 0.31 | 74 | 1015.4 |
| 20260903165430 | 85 | 124 | 1.0 | 1.0 | 0.00 | 0.30 | 0.30 | 72 | 1015.2 |
| 20260903164925 | 85 | 219 | 1.0 | 2.0 | 0.00 | 0.30 | 0.30 | 73 | 1015.3 |
| 20260903164420 | 85 | 140 | 0.0 | 1.0 | 0.00 | 0.30 | 0.30 | 74 | 1015.2 |
| 20260903163920 | 84 | 116 | 0.0 | 0.0 | 0.00 | 0.30 | 0.30 | 74 | 1015.2 |
| 20260903163416 | 84 | 126 | 0.0 | 0.0 | 0.00 | 0.30 | 0.30 | 73 | 1015.1 |
| 20260903162912 | 84 | 79 | 1.0 | 2.0 | 0.00 | 0.30 | 0.30 | 77 | 1015.1 |
| 20260903162408 | 84 | 117 | 0.0 | 1.0 | 0.00 | 0.30 | 0.30 | 77 | 1015.0 |
| 20260903161903 | 84 | 121 | 1.0 | 1.0 | 0.00 | 0.30 | 0.30 | 76 | 1015.1 |
| 20260903161358 | 83 | 127 | 0.0 | 0.0 | 0.05 | 0.30 | 0.30 | 78 | 1015.1 |
| 20260903160855 | 83 | 117 | 1.0 | 1.0 | 0.05 | 0.30 | 0.30 | 78 | 1015.3 |
| 20260903160353 | 83 | 107 | 0.0 | 1.0 | 0.00 | 0.29 | 0.29 | 79 | 1015.1 |
| 20260903155852 | 83 | 145 | 1.0 | 1.0 | 0.00 | 0.29 | 0.29 | 80 | 1015.3 |
| 20260903155347 | 82 | 187 | 0.0 | 1.0 | 0.00 | 0.29 | 0.29 | 79 | 1014.9 |
| 20260903154843 | 82 | 114 | 0.0 | 1.0 | 0.00 | 0.29 | 0.29 | 80 | 1015.1 |
| 20260903154339 | 81 | 123 | 0.0 | 1.0 | 0.00 | 0.29 | 0.29 | 83 | 1015.2 |
| 20260903153833 | 81 | 117 | 0.0 | 0.0 | 0.00 | 0.29 | 0.29 | 83 | 1015.2 |
| 20260903153329 | 81 | 107 | 0.0 | 1.0 | 0.00 | 0.29 | 0.29 | 84 | 1015.3 |
| 20260903152826 | 80 | 121 | 0.0 | 0.0 | 0.07 | 0.29 | 0.29 | 86 | 1015.1 |
| 20260903152321 | 80 | 102 | 0.0 | 0.0 | 0.07 | 0.29 | 0.29 | 91 | 1015.1 |
| 20260903151816 | 80 | 117 | 0.0 | 0.0 | 0.00 | 0.28 | 0.28 | 86 | 1015.2 |
| 20260903151312 | 80 | 134 | 0.0 | 1.0 | 0.00 | 0.28 | 0.28 | 87 | 1014.8 |
| 20260903150811 | 79 | 109 | 0.0 | 0.0 | 0.00 | 0.28 | 0.28 | 92 | 1015.0 |
| 20260903150306 | 79 | 111 | 0.0 | 1.0 | 0.00 | 0.28 | 0.28 | 94 | 1014.9 |
| 20260903145801 | 79 | 80 | 0.0 | 0.0 | 0.00 | 0.28 | 0.28 | 89 | 1015.1 |
| 20260903145256 | 79 | 124 | 0.0 | 0.0 | 0.00 | 0.28 | 0.28 | 90 | 1015.1 |
| 20260903144755 | 79 | 141 | 1.0 | 1.0 | 0.05 | 0.28 | 0.28 | 90 | 1014.9 |
| 20260903144251 | 79 | 133 | 0.0 | 0.0 | 0.05 | 0.28 | 0.28 | 91 | 1015.1 |
| 20260903143746 | 79 | 136 | 0.0 | 0.0 | 0.00 | 0.27 | 0.27 | 92 | 1015.1 |
| 20260903143242 | 78 | 126 | 0.0 | 1.0 | 0.00 | 0.27 | 0.27 | 93 | 1014.9 |
| 20260903142738 | 78 | 145 | 0.0 | 1.0 | 0.00 | 0.27 | 0.27 | 94 | 1015.2 |
| 20260903142234 | 78 | 118 | 0.0 | 0.0 | 0.00 | 0.27 | 0.27 | 95 | 1014.9 |
| 20260903141730 | 77 | 111 | 0.0 | 0.0 | 0.00 | 0.27 | 0.27 | 96 | 1015.1 |
| 20260903141225 | 77 | 120 | 0.0 | 0.0 | 0.00 | 0.27 | 0.27 | 98 | 1015.1 |
| 20260903140720 | 77 | 118 | 0.0 | 0.0 | 0.00 | 0.27 | 0.27 | 99 | 1015.3 |
| 20260903140215 | 76 | 115 | 0.0 | 1.0 | 0.07 | 0.27 | 0.27 | 99 | 1015.1 |
| 20260903135711 | 76 | 104 | 0.0 | 0.0 | 0.00 | 0.26 | 0.26 | 99 | 1015.2 |
| 20260903135206 | 76 | 99 | 0.0 | 0.0 | 0.00 | 0.26 | 0.26 | 99 | 1015.2 |
| 20260903134705 | 75 | 94 | 0.0 | 0.0 | 0.00 | 0.26 | 0.26 | 99 | 1015.3 |
| 20260903134201 | 76 | 111 | 0.0 | 0.0 | 0.00 | 0.26 | 0.26 | 99 | 1015.1 |
| 20260903133659 | 76 | 96 | 0.0 | 0.0 | 0.00 | 0.26 | 0.26 | 99 | 1015.2 |
| 20260903133155 | 75 | 107 | 0.0 | 0.0 | 0.00 | 0.26 | 0.26 | 99 | 1015.0 |
| 20260903132655 | 75 | 110 | 0.0 | 0.0 | 0.05 | 0.26 | 0.26 | 99 | 1015.1 |
| 20260903132154 | 75 | 125 | 0.0 | 1.0 | 0.05 | 0.26 | 0.26 | 99 | 1014.9 |
| 20260903131650 | 75 | 109 | 0.0 | 0.0 | 0.05 | 0.26 | 0.26 | 99 | 1015.2 |
| 20260903131148 | 75 | 109 | 0.0 | 0.0 | 0.00 | 0.25 | 0.25 | 99 | 1015.3 |
| 20260903130644 | 75 | 109 | 0.0 | 0.0 | 0.00 | 0.25 | 0.25 | 99 | 1015.2 |
| 20260903130138 | 75 | 109 | 0.0 | 0.0 | 0.00 | 0.25 | 0.25 | 99 | 1015.3 |
| 20260903125637 | 74 | 109 | 0.0 | 0.0 | 0.00 | 0.25 | 0.25 | 99 | 1015.4 |
| 20260903125132 | 74 | 109 | 0.0 | 0.0 | 0.00 | 0.25 | 0.25 | 99 | 1015.5 |
| 20260903124631 | 74 | 110 | 0.0 | 0.0 | 0.07 | 0.25 | 0.25 | 99 | 1015.3 |
| 20260903124125 | 74 | 95 | 0.0 | 0.0 | 0.07 | 0.25 | 0.25 | 99 | 1015.3 |
| 20260903123620 | 74 | 97 | 0.0 | 0.0 | 0.00 | 0.24 | 0.24 | 99 | 1015.0 |
| 20260903123119 | 74 | 97 | 0.0 | 0.0 | 0.00 | 0.24 | 0.24 | 99 | 1015.2 |
| 20260903122618 | 74 | 99 | 0.0 | 0.0 | 0.00 | 0.24 | 0.24 | 99 | 1015.1 |
| 20260903122113 | 74 | 99 | 0.0 | 0.0 | 0.00 | 0.24 | 0.24 | 99 | 1015.1 |
| 20260903121607 | 74 | 100 | 0.0 | 0.0 | 0.00 | 0.24 | 0.24 | 99 | 1014.7 |
| 20260903121103 | 74 | 100 | 0.0 | 0.0 | 0.05 | 0.24 | 0.24 | 99 | 1014.7 |
| 20260903120601 | 74 | 100 | 0.0 | 0.0 | 0.05 | 0.24 | 0.24 | 99 | 1014.6 |
| 20260903120056 | 74 | 105 | 0.0 | 0.0 | 0.00 | 0.23 | 0.23 | 99 | 1014.7 |
| 20260903115554 | 74 | 105 | 0.0 | 0.0 | 0.00 | 0.23 | 0.23 | 99 | 1014.5 |
| 20260903115050 | 74 | 101 | 0.0 | 0.0 | 0.00 | 0.23 | 0.23 | 99 | 1014.5 |
| 20260903114550 | 74 | 101 | 0.0 | 0.0 | 0.00 | 0.23 | 0.23 | 99 | 1014.4 |
| 20260903114046 | 74 | 107 | 0.0 | 0.0 | 0.07 | 0.23 | 0.23 | 99 | 1014.3 |
| 20260903113541 | 74 | 107 | 0.0 | 0.0 | 0.07 | 0.23 | 0.23 | 99 | 1014.2 |
| 20260903113037 | 74 | 114 | 0.0 | 0.0 | 0.00 | 0.22 | 0.22 | 99 | 1014.4 |
| 20260903112533 | 74 | 117 | 0.0 | 0.0 | 0.00 | 0.22 | 0.22 | 99 | 1014.4 |
| 20260903112028 | 74 | 117 | 0.0 | 0.0 | 0.00 | 0.22 | 0.22 | 99 | 1014.6 |
| 20260903111526 | 74 | 120 | 0.0 | 0.0 | 0.00 | 0.22 | 0.22 | 99 | 1014.2 |
| 20260903111023 | 74 | 115 | 0.0 | 0.0 | 0.05 | 0.22 | 0.22 | 99 | 1014.2 |
| 20260903110519 | 74 | 115 | 0.0 | 0.0 | 0.05 | 0.22 | 0.22 | 99 | 1014.0 |
| 20260903110019 | 74 | 124 | 0.0 | 0.0 | 0.00 | 0.21 | 0.21 | 99 | 1014.1 |
| 20260903105513 | 74 | 108 | 0.0 | 0.0 | 0.00 | 0.21 | 0.21 | 99 | 1013.9 |
| 20260903105009 | 74 | 104 | 0.0 | 0.0 | 0.00 | 0.21 | 0.21 | 99 | 1013.7 |
| 20260903104508 | 74 | 121 | 0.0 | 0.0 | 0.00 | 0.21 | 0.21 | 99 | 1013.7 |
| 20260903104005 | 74 | 115 | 0.0 | 0.0 | 0.07 | 0.21 | 0.21 | 99 | 1013.9 |
| 20260903103500 | 74 | 113 | 0.0 | 0.0 | 0.07 | 0.21 | 0.21 | 99 | 1013.9 |
| 20260903102955 | 74 | 111 | 0.0 | 0.0 | 0.00 | 0.20 | 0.20 | 99 | 1013.9 |
| 20260903102451 | 74 | 112 | 0.0 | 0.0 | 0.00 | 0.20 | 0.20 | 99 | 1013.8 |
| 20260903101949 | 74 | 122 | 0.0 | 0.0 | 0.00 | 0.20 | 0.20 | 99 | 1013.9 |
| 20260903101444 | 74 | 121 | 0.0 | 0.0 | 0.07 | 0.20 | 0.20 | 99 | 1013.9 |
| 20260903100940 | 74 | 119 | 0.0 | 0.0 | 0.07 | 0.20 | 0.20 | 99 | 1013.9 |
| 20260903100435 | 74 | 118 | 0.0 | 0.0 | 0.00 | 0.19 | 0.19 | 99 | 1014.0 |
| 20260903095932 | 74 | 158 | 2.0 | 2.0 | 0.00 | 0.19 | 0.19 | 99 | 1014.0 |
| 20260903095427 | 74 | 51 | 1.0 | 1.0 | 0.00 | 0.19 | 0.19 | 99 | 1013.9 |
| 20260903094922 | 74 | 112 | 0.0 | 0.0 | 0.05 | 0.19 | 0.19 | 99 | 1014.1 |
| 20260903094421 | 75 | 114 | 0.0 | 1.0 | 0.05 | 0.19 | 0.19 | 99 | 1013.8 |
| 20260903093917 | 74 | 120 | 0.0 | 0.0 | 0.00 | 0.18 | 0.18 | 99 | 1013.8 |
| 20260903093412 | 74 | 113 | 0.0 | 0.0 | 0.00 | 0.18 | 0.18 | 99 | 1014.0 |
| 20260903092908 | 74 | 124 | 0.0 | 0.0 | 0.00 | 0.18 | 0.18 | 99 | 1013.7 |
| 20260903092402 | 74 | 116 | 0.0 | 1.0 | 0.07 | 0.18 | 0.18 | 99 | 1013.8 |
| 20260903091901 | 74 | 107 | 0.0 | 0.0 | 0.07 | 0.18 | 0.18 | 99 | 1013.8 |
| 20260903091400 | 74 | 131 | 0.0 | 0.0 | 0.00 | 0.17 | 0.17 | 99 | 1013.8 |
| 20260903090854 | 74 | 151 | 0.0 | 0.0 | 0.00 | 0.17 | 0.17 | 99 | 1013.6 |
| 20260903090345 | 74 | 125 | 0.0 | 0.0 | 0.00 | 0.17 | 0.17 | 99 | 1013.7 |
| 20260903085842 | 74 | 133 | 1.0 | 1.0 | 0.05 | 0.17 | 0.17 | 99 | 1013.8 |
| 20260903085342 | 74 | 125 | 0.0 | 0.0 | 0.05 | 0.17 | 0.17 | 99 | 1013.8 |
| 20260903084841 | 74 | 128 | 0.0 | 0.0 | 0.00 | 0.16 | 0.16 | 99 | 1013.8 |
| 20260903084340 | 74 | 126 | 0.0 | 0.0 | 0.00 | 0.16 | 0.16 | 99 | 1013.7 |
| 20260903083836 | 74 | 124 | 0.0 | 0.0 | 0.07 | 0.16 | 0.16 | 99 | 1013.7 |
| 20260903083331 | 74 | 118 | 0.0 | 0.0 | 0.07 | 0.16 | 0.16 | 99 | 1013.8 |
| 20260903082830 | 74 | 120 | 0.0 | 0.0 | 0.00 | 0.15 | 0.15 | 99 | 1013.7 |
| 20260903082325 | 74 | 120 | 0.0 | 0.0 | 0.00 | 0.15 | 0.15 | 99 | 1013.7 |
| 20260903081820 | 74 | 117 | 0.0 | 0.0 | 0.05 | 0.15 | 0.15 | 99 | 1013.5 |
| 20260903081316 | 74 | 120 | 0.0 | 0.0 | 0.05 | 0.15 | 0.15 | 99 | 1013.8 |
| 20260903080812 | 74 | 120 | 0.0 | 0.0 | 0.00 | 0.14 | 0.14 | 99 | 1014.0 |
| 20260903080310 | 74 | 118 | 0.0 | 0.0 | 0.00 | 0.14 | 0.14 | 99 | 1013.8 |
| 20260903075809 | 74 | 124 | 0.0 | 0.0 | 0.07 | 0.14 | 0.14 | 99 | 1013.8 |
| 20260903075306 | 74 | 106 | 0.0 | 0.0 | 0.07 | 0.14 | 0.14 | 99 | 1013.9 |
| 20260903074803 | 74 | 122 | 0.0 | 0.0 | 0.00 | 0.13 | 0.13 | 99 | 1013.7 |
| 20260903074258 | 74 | 111 | 0.0 | 0.0 | 0.05 | 0.13 | 0.13 | 99 | 1014.0 |
| 20260903073754 | 74 | 128 | 0.0 | 0.0 | 0.05 | 0.13 | 0.13 | 99 | 1013.9 |
| 20260903073249 | 74 | 138 | 1.0 | 1.0 | 0.00 | 0.12 | 0.12 | 99 | 1013.9 |
| 20260903072745 | 74 | 185 | 1.0 | 2.0 | 0.07 | 0.12 | 0.12 | 99 | 1014.2 |
| 20260903072241 | 74 | 149 | 1.0 | 1.0 | 0.07 | 0.12 | 0.12 | 99 | 1014.4 |
| 20260903071737 | 74 | 113 | 0.0 | 1.0 | 0.00 | 0.11 | 0.11 | 99 | 1014.2 |
| 20260903071232 | 74 | 139 | 0.0 | 1.0 | 0.05 | 0.11 | 0.11 | 99 | 1014.3 |
| 20260903070732 | 74 | 134 | 1.0 | 1.0 | 0.05 | 0.11 | 0.11 | 99 | 1014.4 |
| 20260903070228 | 75 | 133 | 0.0 | 0.0 | 0.00 | 0.10 | 0.10 | 99 | 1014.4 |
| 20260903065723 | 75 | 115 | 0.0 | 0.0 | 0.07 | 0.10 | 0.10 | 99 | 1014.5 |
| 20260903065216 | 75 | 123 | 0.0 | 0.0 | 0.07 | 0.10 | 0.10 | 99 | 1014.3 |
| 20260903064716 | 75 | 128 | 0.0 | 0.0 | 0.00 | 0.09 | 0.09 | 99 | 1014.1 |
| 20260903064211 | 75 | 134 | 1.0 | 1.0 | 0.05 | 0.09 | 0.09 | 99 | 1014.4 |
| 20260903063707 | 76 | 136 | 0.0 | 1.0 | 0.05 | 0.09 | 0.09 | 99 | 1014.2 |
| 20260903063202 | 76 | 96 | 0.0 | 0.0 | 0.07 | 0.08 | 0.08 | 99 | 1014.2 |
| 20260903062658 | 76 | 112 | 0.0 | 0.0 | 0.07 | 0.08 | 0.08 | 99 | 1013.8 |
| 20260903062152 | 76 | 98 | 0.0 | 0.0 | 0.00 | 0.07 | 0.07 | 99 | 1013.6 |
| 20260903061648 | 76 | 80 | 0.0 | 0.0 | 0.07 | 0.07 | 0.07 | 99 | 1013.7 |
| 20260903061147 | 76 | 107 | 0.0 | 0.0 | 0.07 | 0.07 | 0.07 | 99 | 1013.9 |
| 20260903060642 | 76 | 126 | 0.0 | 0.0 | 0.05 | 0.06 | 0.06 | 99 | 1013.8 |
| 20260903060137 | 76 | 125 | 0.0 | 0.0 | 0.05 | 0.06 | 0.06 | 99 | 1014.1 |
| 20260903055635 | 76 | 98 | 0.0 | 0.0 | 0.07 | 0.05 | 0.05 | 99 | 1013.9 |
| 20260903055133 | 76 | 114 | 0.0 | 0.0 | 0.07 | 0.05 | 0.05 | 99 | 1013.8 |
| 20260903054628 | 76 | 113 | 0.0 | 0.0 | 0.00 | 0.04 | 0.04 | 99 | 1013.8 |
| 20260903054124 | 76 | 92 | 0.0 | 0.0 | 0.05 | 0.04 | 0.04 | 99 | 1013.8 |
| 20260903053620 | 76 | 110 | 0.0 | 0.0 | 0.07 | 0.03 | 0.03 | 99 | 1013.8 |
| 20260903053115 | 76 | 102 | 0.0 | 0.0 | 0.07 | 0.03 | 0.03 | 99 | 1013.7 |
| 20260903052611 | 76 | 109 | 0.0 | 0.0 | 0.05 | 0.02 | 0.02 | 99 | 1013.8 |
| 20260903052106 | 76 | 104 | 0.0 | 0.0 | 0.05 | 0.02 | 0.02 | 99 | 1013.5 |
| 20260903051601 | 76 | 93 | 0.0 | 0.0 | 0.07 | 0.01 | 0.01 | 99 | 1013.6 |
| 20260903051056 | 76 | 107 | 0.0 | 0.0 | 0.07 | 0.01 | 0.01 | 99 | 1013.5 |
| 20260903050555 | 76 | 112 | 0.0 | 0.0 | 0.05 | 0.00 | 0.00 | 99 | 1013.8 |
| 20260903050051 | 76 | 89 | 0.0 | 0.0 | 0.05 | 0.00 | 0.00 | 99 | 1014.0 |
| 20260903045550 | 76 | 105 | 0.0 | 0.0 | 0.07 | 0.49 | 0.49 | 99 | 1013.8 |
| 20260903045047 | 76 | 104 | 0.0 | 0.0 | 0.07 | 0.49 | 0.49 | 99 | 1013.8 |
| 20260903044543 | 76 | 98 | 0.0 | 0.0 | 0.05 | 0.48 | 0.48 | 99 | 1013.6 |
| 20260903044038 | 76 | 97 | 0.0 | 0.0 | 0.00 | 0.47 | 0.47 | 99 | 1013.9 |
| 20260903043534 | 76 | 86 | 0.0 | 0.0 | 0.07 | 0.47 | 0.47 | 99 | 1014.1 |
| 20260903043033 | 76 | 98 | 0.0 | 0.0 | 0.14 | 0.47 | 0.47 | 99 | 1014.0 |
| 20260903042528 | 75 | 104 | 0.0 | 0.0 | 0.07 | 0.46 | 0.46 | 99 | 1014.0 |
| 20260903042024 | 75 | 101 | 0.0 | 0.0 | 0.00 | 0.45 | 0.45 | 99 | 1014.0 |
| 20260903041521 | 75 | 99 | 0.0 | 0.0 | 0.00 | 0.45 | 0.45 | 99 | 1013.7 |
| 20260903041015 | 75 | 90 | 0.0 | 0.0 | 0.00 | 0.45 | 0.45 | 99 | 1014.0 |
| 20260903040514 | 75 | 93 | 0.0 | 0.0 | 0.00 | 0.45 | 0.45 | 99 | 1013.9 |
| 20260903040011 | 75 | 94 | 0.0 | 0.0 | 0.00 | 0.45 | 0.45 | 99 | 1013.9 |
| 20260903035506 | 75 | 101 | 0.0 | 0.0 | 0.00 | 0.45 | 0.45 | 99 | 1013.9 |
| 20260903035002 | 75 | 107 | 0.0 | 0.0 | 0.00 | 0.45 | 0.45 | 99 | 1013.9 |
| 20260903034456 | 75 | 61 | 0.0 | 1.0 | 0.00 | 0.45 | 0.45 | 99 | 1013.3 |
| 20260903033956 | 75 | 100 | 0.0 | 0.0 | 0.05 | 0.45 | 0.45 | 99 | 1013.4 |
| 20260903033452 | 75 | 57 | 1.0 | 2.0 | 0.05 | 0.45 | 0.45 | 99 | 1013.4 |
| 20260903032946 | 75 | 94 | 0.0 | 1.0 | 0.00 | 0.44 | 0.44 | 99 | 1013.4 |
| 20260903032442 | 75 | 76 | 1.0 | 1.0 | 0.00 | 0.44 | 0.44 | 99 | 1013.4 |
| 20260903031937 | 75 | 59 | 0.0 | 1.0 | 0.07 | 0.44 | 0.44 | 99 | 1013.4 |
| 20260903031431 | 75 | 79 | 1.0 | 1.0 | 0.07 | 0.44 | 0.44 | 99 | 1013.4 |
| 20260903030926 | 75 | 97 | 0.0 | 0.0 | 0.00 | 0.43 | 0.43 | 99 | 1013.2 |
| 20260903030423 | 75 | 51 | 1.0 | 1.0 | 0.05 | 0.43 | 0.43 | 99 | 1013.3 |
| 20260903025918 | 75 | 96 | 0.0 | 1.0 | 0.05 | 0.43 | 0.43 | 99 | 1013.2 |
| 20260903025414 | 75 | 72 | 0.0 | 1.0 | 0.00 | 0.42 | 0.42 | 99 | 1013.1 |
| 20260903024908 | 75 | 73 | 0.0 | 1.0 | 0.07 | 0.42 | 0.42 | 99 | 1012.9 |
| 20260903024402 | 75 | 71 | 0.0 | 1.0 | 0.05 | 0.41 | 0.41 | 99 | 1013.1 |
| 20260903023857 | 75 | 53 | 1.0 | 1.0 | 0.12 | 0.41 | 0.41 | 99 | 1013.0 |
| 20260903023353 | 75 | 85 | 0.0 | 1.0 | 0.12 | 0.40 | 0.40 | 99 | 1013.0 |
| 20260903022848 | 75 | 75 | 0.0 | 0.0 | 0.05 | 0.39 | 0.39 | 99 | 1012.6 |
| 20260903022347 | 75 | 48 | 2.0 | 2.0 | 0.12 | 0.39 | 0.39 | 99 | 1012.5 |
| 20260903021846 | 75 | 69 | 0.0 | 1.0 | 0.12 | 0.38 | 0.38 | 99 | 1012.8 |
| 20260903021342 | 75 | 65 | 1.0 | 1.0 | 0.12 | 0.37 | 0.37 | 99 | 1012.9 |
| 20260903020841 | 75 | 83 | 0.0 | 1.0 | 0.19 | 0.36 | 0.36 | 99 | 1012.5 |
| 20260903020336 | 75 | 85 | 0.0 | 0.0 | 0.19 | 0.35 | 0.35 | 99 | 1012.3 |
| 20260903015831 | 75 | 89 | 0.0 | 1.0 | 0.24 | 0.33 | 0.33 | 99 | 1012.2 |
| 20260903015327 | 75 | 117 | 1.0 | 1.0 | 0.47 | 0.32 | 0.32 | 99 | 1012.2 |
| 20260903014822 | 75 | 77 | 1.0 | 1.0 | 0.54 | 0.28 | 0.28 | 99 | 1012.2 |
| 20260903014316 | 75 | 100 | 0.0 | 0.0 | 0.54 | 0.24 | 0.24 | 99 | 1012.5 |
| 20260903013811 | 75 | 98 | 0.0 | 0.0 | 0.64 | 0.19 | 0.19 | 99 | 1012.2 |
| 20260903013310 | 75 | 114 | 0.0 | 0.0 | 0.42 | 0.14 | 0.14 | 99 | 1012.4 |
| 20260903012809 | 75 | 111 | 0.0 | 0.0 | 0.14 | 0.08 | 0.08 | 99 | 1012.2 |
| 20260903012306 | 75 | 96 | 0.0 | 1.0 | 0.12 | 0.07 | 0.07 | 99 | 1012.3 |
| 20260903011757 | 75 | 77 | 1.0 | 2.0 | 0.12 | 0.06 | 0.06 | 99 | 1012.1 |
| 20260903011256 | 75 | 85 | 0.0 | 0.0 | 0.07 | 0.05 | 0.05 | 99 | 1012.2 |
| 20260903010752 | 75 | 72 | 1.0 | 1.0 | 0.00 | 0.04 | 0.04 | 99 | 1012.2 |
| 20260903010248 | 75 | 64 | 0.0 | 0.0 | 0.05 | 0.04 | 0.04 | 98 | 1012.0 |
| 20260903005746 | 75 | 94 | 0.0 | 0.0 | 0.12 | 0.04 | 0.04 | 98 | 1011.9 |
| 20260903005241 | 76 | 87 | 0.0 | 0.0 | 0.19 | 0.03 | 0.03 | 98 | 1011.9 |
| 20260903004737 | 76 | 64 | 1.0 | 1.0 | 0.12 | 0.02 | 0.02 | 97 | 1012.0 |
| 20260903004232 | 76 | 86 | 1.0 | 1.0 | 0.00 | 0.00 | 0.00 | 96 | 1012.0 |
| 20260903003728 | 76 | 96 | 0.0 | 0.0 | 0.00 | 0.00 | 0.00 | 95 | 1011.7 |
| 20260903003223 | 77 | 68 | 0.0 | 0.0 | 0.00 | 0.00 | 0.00 | 95 | 1012.0 |
| 20260903002717 | 77 | 71 | 1.0 | 2.0 | 0.00 | 0.00 | 0.00 | 94 | 1012.2 |
| 20260903002212 | 77 | 83 | 0.0 | 0.0 | 0.00 | 0.00 | 0.00 | 92 | 1011.9 |
| 20260903001708 | 78 | 72 | 1.0 | 1.0 | 0.00 | 0.00 | 0.00 | 91 | 1011.9 |
| 20260903001207 | 79 | 63 | 1.0 | 1.0 | 0.00 | 0.00 | 0.00 | 88 | 1012.0 |
| 20260903000702 | 79 | 45 | 1.0 | 1.0 | 0.00 | 0.00 | 0.00 | 86 | 1011.9 |
| 20260903000156 | 79 | 101 | 0.0 | 0.0 | 0.00 | 0.00 | 0.00 | 85 | 1011.8 |
| 20260902235655 | 79 | 89 | 0.0 | 0.0 | 0.00 | 0.00 | 0.00 | 85 | 1012.1 |
| 20260902235150 | 79 | 105 | 0.0 | 1.0 | 0.00 | 0.00 | 0.00 | 84 | 1012.1 |
| 20260902234650 | 79 | 86 | 0.0 | 0.0 | 0.00 | 0.00 | 0.00 | 84 | 1012.1 |
| 20260902234149 | 80 | 72 | 0.0 | 0.0 | 0.00 | 0.00 | 0.00 | 83 | 1012.0 |
| 20260902233644 | 80 | 79 | 0.0 | 1.0 | 0.00 | 0.00 | 0.00 | 82 | 1012.1 |
| 20260902233143 | 80 | 51 | 0.0 | 1.0 | 0.00 | 0.00 | 0.00 | 82 | 1012.1 |
| 20260902232642 | 80 | 78 | 1.0 | 2.0 | 0.00 | 0.00 | 0.00 | 82 | 1012.3 |
| 20260902232142 | 80 | 74 | 1.0 | 1.0 | 0.00 | 0.00 | 0.00 | 83 | 1012.2 |
| 20260902231641 | 80 | 53 | 1.0 | 1.0 | 0.00 | 0.00 | 0.00 | 83 | 1012.1 |
| 20260902231137 | 80 | 38 | 1.0 | 1.0 | 0.00 | 0.00 | 0.00 | 82 | 1012.4 |
| 20260902230632 | 81 | 98 | 1.0 | 1.0 | 0.00 | 0.00 | 0.00 | 80 | 1012.2 |
| 20260902230130 | 81 | 83 | 0.0 | 0.0 | 0.00 | 0.00 | 0.00 | 78 | 1012.1 |
| 20260902225626 | 82 | 49 | 1.0 | 2.0 | 0.00 | 0.00 | 0.00 | 77 | 1011.8 |
| 20260902225125 | 82 | 78 | 1.0 | 1.0 | 0.00 | 0.00 | 0.00 | 77 | 1011.8 |
| 20260902224624 | 82 | 103 | 1.0 | 1.0 | 0.00 | 0.00 | 0.00 | 77 | 1011.9 |
| 20260902224120 | 82 | 84 | 0.0 | 2.0 | 0.00 | 0.00 | 0.00 | 76 | 1011.9 |
| 20260902223616 | 82 | 33 | 2.0 | 3.0 | 0.00 | 0.00 | 0.00 | 75 | 1011.8 |
| 20260902223115 | 82 | 83 | 1.0 | 2.0 | 0.00 | 0.00 | 0.00 | 75 | 1011.6 |
| 20260902222614 | 83 | 92 | 1.0 | 1.0 | 0.00 | 0.00 | 0.00 | 75 | 1011.8 |
| 20260902222113 | 83 | 120 | 3.0 | 3.0 | 0.00 | 0.00 | 0.00 | 74 | 1011.8 |
| 20260902221608 | 84 | 34 | 1.0 | 2.0 | 0.00 | 0.00 | 0.00 | 72 | 1011.7 |
| 20260902221102 | 84 | 96 | 1.0 | 1.0 | 0.00 | 0.00 | 0.00 | 71 | 1011.7 |
| 20260902220558 | 85 | 100 | 1.0 | 2.0 | 0.00 | 0.00 | 0.00 | 70 | 1011.8 |
| 20260902220052 | 85 | 46 | 2.0 | 2.0 | 0.00 | 0.00 | 0.00 | 70 | 1011.7 |
| 20260902215548 | 85 | 23 | 2.0 | 2.0 | 0.00 | 0.00 | 0.00 | 71 | 1012.0 |
| 20260902215044 | 85 | 105 | 0.0 | 0.0 | 0.00 | 0.00 | 0.00 | 70 | 1012.0 |
| 20260902214538 | 85 | 99 | 0.0 | 0.0 | 0.00 | 0.00 | 0.00 | 70 | 1011.9 |
| 20260902214037 | 85 | 110 | 0.0 | 1.0 | 0.00 | 0.00 | 0.00 | 70 | 1012.2 |
| 20260902213533 | 84 | 106 | 0.0 | 1.0 | 0.00 | 0.00 | 0.00 | 71 | 1012.1 |
| 20260902213032 | 84 | 103 | 0.0 | 1.0 | 0.00 | 0.00 | 0.00 | 72 | 1011.7 |
| 20260902212528 | 84 | 121 | 1.0 | 2.0 | 0.00 | 0.00 | 0.00 | 72 | 1011.9 |
| 20260902212024 | 85 | 80 | 0.0 | 1.0 | 0.00 | 0.00 | 0.00 | 71 | 1012.1 |
| 20260902211520 | 85 | 115 | 1.0 | 1.0 | 0.00 | 0.00 | 0.00 | 70 | 1012.2 |
| 20260902211015 | 85 | 86 | 0.0 | 0.0 | 0.00 | 0.00 | 0.00 | 70 | 1012.1 |